Burnet, TX

3:54 AM CDT on May 28, 2017 (GMT -0500)
Burnet Municipal-Craddock

Weather History for KBMQ - December, 2012

Change the Weather History Date:

Saturday, December 1, 2012

  Actual Average Record
Temperature  
Mean Temperature 70 °F -  
Max Temperature 77 °F 61 °F 77 °F (2012)
Min Temperature 63 °F 42 °F 27 °F (2006)
Cooling Degree Days 5    
Growing Degree Days 20 (Base 50)    
Moisture  
Dew Point 61 °F    
Average Humidity 78    
Maximum Humidity 93    
Minimum Humidity 54    
Precipitation  
Precipitation 0.00 in - - ()
Sea Level Pressure  
Sea Level Pressure 30.07 in    
Wind  
Wind Speed 10 mph (South)    
Max Wind Speed 18 mph    
Max Gust Speed 26 mph    
Visibility 9 miles    
Events      
Averages and records for this station are not official NWS values.
T = Trace of Precipitation, MM = Missing Value Source: NWS Daily Summary

Daily Weather History Graph

Daily Weather History Graph

Search for Another Location

Airport or City:

Trip Planner

Search our weather history database for the weather conditions in past years. The results will help you decide how hot, cold, wet, or windy it might be!

Date:

Astronomy

Dec. 01, 2012 Rise Set
Actual Time 7:13 AM CST 5:31 PM CST
Civil Twilight 6:46 AM CST 5:57 PM CST
Nautical Twilight 6:17 AM CST 6:27 PM CST
Astronomical Twilight 5:48 AM CST 6:56 PM CST
Moon 8:18 PM CST (12/1) 9:29 AM CST (12/1)
Length of Visible Light 11h 10m
Length of Day
10h 17m
Waning Gibbous, 91% of the Moon is Illuminated
Dec 1
Waning Gibbous
Dec 6
Last Quarter
Dec 13
New
Dec 19
First Quarter
Dec 28
Full

Hourly Weather History & Observations

Time (CST) Temp. Dew Point Humidity Pressure Visibility Wind Dir Wind Speed Gust Speed Precip Events Conditions
12:32 AM 63.0 °F 59.0 °F 87% 30.10 in 10.0 mi South 8.1 mph - N/A   Mostly Cloudy
12:53 AM 63.0 °F 59.0 °F 87% 30.06 in 9.0 mi South 10.4 mph - N/A   Mostly Cloudy
1:05 AM 64.0 °F 61.0 °F 90% 30.10 in 8.0 mi South 9.2 mph - N/A   Overcast
1:53 AM 64.0 °F 62.1 °F 93% 30.06 in 6.0 mi South 11.5 mph - N/A   Overcast
2:01 AM 64.9 °F 62.1 °F 90% 30.10 in 6.0 mi South 8.1 mph - N/A   Overcast
2:24 AM 64.9 °F 62.1 °F 90% 30.10 in 7.0 mi South 9.2 mph - N/A   Mostly Cloudy
2:53 AM 64.9 °F 63.0 °F 93% 30.06 in 7.0 mi South 8.1 mph - N/A   Overcast
3:53 AM 66.0 °F 63.0 °F 90% 30.05 in 9.0 mi South 9.2 mph - N/A   Overcast
4:07 AM 66.9 °F 63.0 °F 87% 30.09 in 10.0 mi South 9.2 mph - N/A   Mostly Cloudy
4:27 AM 66.0 °F 63.0 °F 90% 30.09 in 9.0 mi South 6.9 mph - N/A   Mostly Cloudy
4:53 AM 66.9 °F 63.0 °F 87% 30.05 in 10.0 mi South 6.9 mph - N/A   Overcast
5:53 AM 66.0 °F 63.0 °F 90% 30.06 in 8.0 mi South 10.4 mph - N/A   Mostly Cloudy
6:53 AM 66.0 °F 63.0 °F 90% 30.07 in 9.0 mi South 6.9 mph - N/A   Mostly Cloudy
7:53 AM 66.9 °F 63.0 °F 87% 30.09 in 9.0 mi South 9.2 mph - N/A   Overcast
8:53 AM 69.1 °F 63.0 °F 81% 30.09 in 10.0 mi South 12.7 mph - N/A   Mostly Cloudy
9:53 AM 70.0 °F 62.1 °F 76% 30.11 in 10.0 mi SSW 15.0 mph 25.3 mph N/A   Overcast
10:53 AM 73.0 °F 62.1 °F 68% 30.10 in 10.0 mi SSW 18.4 mph - N/A   Scattered Clouds
11:01 AM 72.0 °F 62.1 °F 71% 30.13 in 10.0 mi South 16.1 mph - N/A   Mostly Cloudy
11:23 AM 73.0 °F 62.1 °F 68% 30.13 in 10.0 mi SSW 18.4 mph 23.0 mph N/A   Overcast
11:44 AM 73.9 °F 61.0 °F 64% 30.12 in 10.0 mi South 12.7 mph 25.3 mph N/A   Overcast
11:53 AM 75.0 °F 62.1 °F 64% 30.08 in 10.0 mi South 13.8 mph 21.9 mph N/A   Mostly Cloudy
12:06 PM 75.9 °F 61.0 °F 60% 30.11 in 10.0 mi SSW 15.0 mph 25.3 mph N/A   Scattered Clouds
12:29 PM 75.9 °F 61.0 °F 60% 30.10 in 10.0 mi South 12.7 mph 26.5 mph N/A   Mostly Cloudy
12:53 PM 75.0 °F 61.0 °F 62% 30.04 in 10.0 mi South 15.0 mph 24.2 mph N/A   Mostly Cloudy
2:53 PM 77.0 °F 60.1 °F 56% 30.01 in 10.0 mi SSW 17.3 mph 23.0 mph N/A   Partly Cloudy
3:53 PM 77.0 °F 59.0 °F 54% 30.00 in 10.0 mi SSW 13.8 mph 21.9 mph N/A   Clear
5:53 PM 72.0 °F 59.0 °F 64% 30.02 in 10.0 mi South 5.8 mph - N/A   Clear
6:53 PM 69.1 °F 59.0 °F 70% 30.02 in 10.0 mi South 4.6 mph - N/A   Clear
7:53 PM 68.0 °F 59.0 °F 73% 30.03 in 10.0 mi South 5.8 mph - N/A   Clear
8:53 PM 66.9 °F 59.0 °F 76% 30.03 in 10.0 mi South 5.8 mph - N/A   Clear
9:53 PM 66.0 °F 60.1 °F 81% 30.04 in 10.0 mi South 6.9 mph - N/A   Clear
10:43 PM 66.9 °F 61.0 °F 81% 30.09 in 10.0 mi South 9.2 mph - N/A   Mostly Cloudy
10:53 PM 66.9 °F 61.0 °F 81% 30.06 in 10.0 mi South 8.1 mph - N/A   Overcast
11:00 PM 66.9 °F 61.0 °F 81% 30.10 in 10.0 mi South 8.1 mph - N/A   Overcast
11:53 PM 68.0 °F 63.0 °F 84% 30.06 in 10.0 mi South 9.2 mph - N/A   Overcast